Overview Statistics Trail Chart Weather Telemetry Raw packets
 

This is the latest recevied weather packets stored in our database for station/object S51UL-6. If no packets are shown the sender has not sent any weather packets the latest 10 day(s).

<< 35 36 37 38 39 40 41 >>
Time Temp. Humidity Pressure Rain* Wind** Luminosity Snow
1788387974 16.67° C 84% 1020.9 hPa 9.91 mm - - -
1788387373 16.67° C 84% 1020.9 hPa 9.4 mm - - -
1788387073 17.22° C 84% 1020.9 hPa 8.89 mm - - -
1788386774 17.22° C 83% 1020.9 hPa 10.41 mm - - -
1788386473 16.67° C 83% 1021 hPa 8.13 mm - - -
1788386173 17.22° C 83% 1020.9 hPa 7.11 mm - - -
1788385875 17.22° C 83% 1020.9 hPa 6.6 mm - - -
1788385573 17.22° C 83% 1020.7 hPa 6.1 mm - - -
1788385273 17.22° C 83% 1020.8 hPa 6.1 mm - - -
1788384974 17.22° C 82% 1020.8 hPa 5.59 mm - - -
1788384674 17.22° C 82% 1020.9 hPa 5.08 mm - - -
1788384375 17.22° C 82% 1020.8 hPa 4.57 mm - - -
1788383774 17.78° C 82% 1020.9 hPa 3.56 mm - - -
1788383473 17.78° C 82% 1020.8 hPa 2.03 mm - - -
1788382874 17.22° C 82% 1020.8 hPa 1.02 mm - - -
1788382574 17.22° C 81% 1020.8 hPa 0.51 mm - - -
1788382274 17.78° C 80% 1020.7 hPa 0.51 mm - - -
1788381975 17.78° C 80% 1020.6 hPa 0.51 mm - - -
1788381674 17.78° C 80% 1020.7 hPa 0.51 mm - - -
1788381374 17.78° C 80% 1020.6 hPa 0 mm - - -
1788381074 17.78° C 79% 1020.7 hPa 0 mm - - -
1788380797 17.78° C 79% 1020.5 hPa 0 mm - - -
1788380174 18.33° C 78% 1020.7 hPa 0 mm - - -
1788379875 18.33° C 78% 1020.7 hPa 0 mm - - -
1788379577 18.33° C 78% 1020.9 hPa 0 mm - - -

* Rain latest hour (hover to see other rain measurements)
** Current wind speed in m/s (hover to see current wind gust speed)